[[{"header":{"parameterUnit":"m.s-1","parameterCategory":1,"la1":30.2991,"la2":30.254,"lo1":-89.0895,"lo2":-89.0444,"dy":0.0017,"dx":0.0017,"nx":28,"ny":28,"refTime":"2023-09-14T03:00:00:Z","depth":0,"parameterNumber":2,"parameterNumberName":"U-component_of_WINDS"},"data":[0,0,0,0,0,0,0,0,0,0,0,0,0,0,0,0,0,0,0,0,0,0,0,0,0,0,0,0,0,0,0,0,0,0,0,0,0,0,0,0,0,0,0,0,0,0,0,0,0,0,0,0,0,0,0,0,0,0,1.0953,1.0953,0,1.101,1.1011,1.1011,1.1015,1.1014,1.1014,1.1013,1.1071,1.1074,1.1076,0,0,0,0,0,0,0,0,0,0,0,0,0,1.0844,1.0846,1.0953,1.0953,1.0954,1.101,1.1011,1.1012,1.1015,1.1014,1.1014,1.1013,1.1071,1.1073,1.1076,0,0,0,0,0,0,0,0,0,0,0,0,0,1.0895,1.0846,1.0952,1.0963,1.0964,1.101,1.1011,1.1012,1.1015,1.1014,1.1013,1.1013,1.107,1.1073,1.1076,1.1116,0,0,1.1086,1.1088,0,0,0,0,0,0,0,0,1.0892,1.0899,1.096,1.0962,1.0964,1.1004,1.0994,1.1047,1.1016,1.0996,1.1013,1.1012,1.105,1.1055,1.1068,1.1118,1.1121,1.1086,1.1088,1.109,1.1091,0,0,0,0,0,0,0,1.0889,1.0897,1.0975,1.0961,1.0963,1.0964,1.097,1.1004,1.1028,1.0998,1.0998,1.1005,1.1051,1.1065,1.1069,1.1122,1.1086,1.1089,1.1091,1.1092,1.1205,1.1206,0,0,0,0,0,0,1.0883,1.0894,1.0973,1.0977,1.0925,1.0966,1.0973,1.0992,1.1027,1.1032,1.1006,1.1005,1.1059,1.1065,1.1071,1.1118,1.109,1.1093,1.1095,1.1204,1.1206,1.1207,0,0,0,0,0,0,1.0881,1.089,1.0971,1.0936,1.0946,1.0969,1.0991,1.0994,1.1008,1.1033,1.1037,1.1015,1.1059,1.1067,1.1104,1.112,1.1094,1.1097,1.1203,1.1205,1.1206,1.1213,0,0,0,0,0,0,1.0878,1.089,1.0905,1.0936,1.0948,1.1004,1.0992,1.0996,1.1014,1.1013,1.1044,1.1048,1.1059,1.1099,1.1107,1.1124,1.11,1.1202,1.1204,1.1206,1.1211,1.1214,1.1217,0,0,0,0,0,1.0874,1.0905,1.0906,1.0916,1.0968,1.1005,1.1011,1.1024,1.1015,1.103,1.1046,1.1047,1.1117,1.1103,1.1112,1.113,1.1201,1.1203,1.1205,1.121,1.1214,1.1217,0,0,0,0,0,0,1.0876,1.0909,1.0911,1.0953,1.0976,1.1005,1.1025,1.1028,1.1053,1.1052,1.1065,1.1072,1.1109,1.1124,1.1107,1.1169,1.1158,1.1162,1.1158,1.1162,1.1165,1.116,1.1102,0,0,0,0,0,1.0881,1.0909,1.0936,1.0971,1.0982,1.1002,1.1018,1.1026,1.105,1.1059,1.1078,1.1102,1.1129,1.1146,1.1173,1.1213,1.1219,1.123,1.1233,1.1235,1.1239,1.1259,1.1264,1.1215,1.1215,1.1214,0,0,1.0893,1.0914,1.0931,1.0972,1.099,1.1018,1.101,1.104,1.106,1.1064,1.11,1.1115,1.1141,1.118,1.1198,1.1193,1.1254,1.1238,1.124,1.1242,1.1262,1.1267,1.1271,1.1216,1.1216,1.1216,0,0,1.0927,1.0947,1.0977,1.0995,1.1024,1.1036,1.1043,1.1072,1.1082,1.1118,1.1122,1.1145,1.1192,1.1211,1.1226,1.1266,1.1266,1.1274,1.1289,1.1309,1.1313,1.1316,1.1329,1.1333,1.1277,1.1277,1.1277,0,1.0937,1.0979,1.0992,1.1021,1.1038,1.1043,1.1073,1.109,1.1126,1.1137,1.1131,1.1189,1.1207,1.1249,1.1259,1.1272,1.1279,1.127,1.1311,1.1315,1.1318,1.133,1.1335,1.1278,1.1278,1.1278,1.1278,0,1.0989,1.1018,1.1039,1.1073,1.1092,1.1122,1.1138,1.1156,1.1161,1.1174,1.121,1.1232,1.1263,1.1273,1.1279,1.1316,1.1312,1.1309,1.1298,1.1323,1.1335,1.134,1.1279,1.1279,1.1278,1.1278,0,0,1.1026,1.1066,1.1073,1.1088,1.1119,1.1141,1.117,1.12,1.1214,1.1238,1.1262,1.1301,1.1297,1.1315,1.1323,1.134,1.1368,1.1335,1.1335,1.1339,1.1408,1.1409,1.1414,1.1369,1.137,1.1371,1.1405,0,1.1063,1.1115,1.1127,1.1171,1.1197,1.1201,1.1226,1.1247,1.126,1.1283,1.1297,1.1323,1.1318,1.1328,1.1346,1.1361,1.1382,1.1359,1.139,1.1391,1.1382,1.1421,1.1423,1.1454,1.141,1.1411,1.1411,0,1.1113,1.1137,1.1184,1.121,1.1221,1.1244,1.1271,1.1293,1.1317,1.1324,1.1343,1.1349,1.1378,1.1366,1.1405,1.1389,1.1403,1.1412,1.1413,1.1416,1.1402,1.1423,1.1464,1.1468,1.1419,1.1418,1.1417,0,1.1133,1.1178,1.1211,1.1224,1.1256,1.1271,1.1285,1.1307,1.1324,1.1347,1.1358,1.1385,1.1399,1.1419,1.1431,1.1421,1.1469,1.1458,1.1475,1.1474,1.1484,1.1483,1.1527,1.1495,1.1495,1.1494,1.1494,0,1.1172,1.12,1.1221,1.1241,1.1272,1.1285,1.1315,1.1329,1.1349,1.1371,1.1377,1.1397,1.1413,1.1435,1.1445,1.1475,1.1482,1.1488,1.149,1.1487,1.1486,1.1495,1.1493,1.1496,1.1495,1.1495,1.1495,0,1.12,1.1215,1.1251,1.1278,1.1285,1.1307,1.1329,1.1349,1.1361,1.1389,1.1396,1.1415,1.1442,1.1456,1.149,1.1496,1.1529,1.1531,1.1521,1.1522,1.1537,1.1535,1.1587,1.1594,1.1559,1.1559,1.1559,0,1.1223,1.1244,1.1273,1.1289,1.1303,1.1328,1.1344,1.1357,1.1374,1.1402,1.1417,1.1444,1.1466,1.1508,1.1525,1.155,1.1551,1.1568,1.1555,1.155,1.155,1.1548,1.1549,1.157,1.157,1.157,1.1571,0,1.1262,1.1268,1.1292,1.1318,1.1338,1.1359,1.138,1.1392,1.1408,1.1427,1.1454,1.1471,1.1505,1.1531,1.1557,1.157,1.1573,1.1575,1.1579,1.1576,1.1569,1.1571,1.1526,1.1573,1.1573,1.1573,1.1573,1.1572,1.1287,1.1306,1.1329,1.1355,1.1372,1.1391,1.141,1.1424,1.1447,1.1476,1.1482,1.151,1.1531,1.1567,1.1581,1.1602,1.1599,1.1606,1.1608,1.1609,1.1609,1.1566,1.1607,1.1607,1.1607,1.1607,1.1607,0,1.1325,1.134,1.1364,1.1392,1.1412,1.1413,1.1436,1.1453,1.1477,1.1498,1.1519,1.1549,1.1574,1.1592,1.1617,1.1631,1.1633,1.1637,1.1636,1.1638,1.1612,1.1604,1.1635,1.1635,1.1635,1.1635,1.1635,1.1635,1.1347,1.1378,1.1387,1.1426,1.144,1.1468,1.1481,1.1498,1.1514,1.1548,1.1568,1.158,1.1599,1.1625,1.1647,1.1652,1.166,1.1664,1.1669,1.1643,1.164,1.1637,1.163,1.1666,1.1666,1.1693,1.1694,1.1694]},{"header":{"parameterUnit":"m.s-1","parameterCategory":1,"la1":30.2991,"la2":30.254,"lo1":-89.0895,"lo2":-89.0444,"dy":0.0017,"dx":0.0017,"nx":28,"ny":28,"refTime":"2023-09-14T03:00:00:Z","depth":0,"parameterNumber":3,"parameterNumberName":"V-component_of_WINDS"},"data":[0,0,0,0,0,0,0,0,0,0,0,0,0,0,0,0,0,0,0,0,0,0,0,0,0,0,0,0,0,0,0,0,0,0,0,0,0,0,0,0,0,0,0,0,0,0,0,0,0,0,0,0,0,0,0,0,0,0,2.1507,2.1507,0,2.1528,2.1528,2.1528,2.1536,2.1536,2.1536,2.1536,2.1555,2.1555,2.1556,0,0,0,0,0,0,0,0,0,0,0,0,0,2.1469,2.1469,2.1507,2.1507,2.1508,2.1528,2.1528,2.1529,2.1536,2.1536,2.1536,2.1536,2.1554,2.1555,2.1556,0,0,0,0,0,0,0,0,0,0,0,0,0,2.1487,2.1469,2.1507,2.1514,2.1515,2.1528,2.1528,2.1529,2.1536,2.1536,2.1536,2.1536,2.1554,2.1555,2.1556,2.1563,0,0,2.1558,2.1559,0,0,0,0,0,0,0,0,2.1486,2.1488,2.1513,2.1513,2.1514,2.1529,2.1522,2.154,2.1536,2.1528,2.1536,2.1536,2.1546,2.1548,2.1552,2.1564,2.1565,2.1559,2.1559,2.1559,2.156,0,0,0,0,0,0,0,2.1485,2.1487,2.1515,2.1513,2.1514,2.1514,2.1517,2.1525,2.1537,2.1529,2.1529,2.1532,2.1547,2.1551,2.1552,2.1565,2.1559,2.1559,2.156,2.156,2.1579,2.1579,0,0,0,0,0,0,2.1483,2.1486,2.1515,2.1516,2.15,2.1515,2.1518,2.1525,2.1537,2.1539,2.1532,2.1532,2.1549,2.1551,2.1553,2.1559,2.1559,2.156,2.1561,2.1579,2.1579,2.1579,0,0,0,0,0,0,2.1482,2.1485,2.1514,2.1501,2.1505,2.1516,2.1523,2.1525,2.1529,2.154,2.1541,2.1534,2.1549,2.1552,2.156,2.156,2.1561,2.1561,2.1579,2.1579,2.1579,2.1574,0,0,0,0,0,0,2.1481,2.1485,2.1489,2.1501,2.1506,2.1522,2.1523,2.1526,2.1531,2.1532,2.1542,2.1544,2.155,2.1558,2.156,2.1561,2.1562,2.1579,2.1579,2.1579,2.1574,2.1574,2.1573,0,0,0,0,0,2.1479,2.1488,2.149,2.1493,2.1512,2.1522,2.1524,2.1531,2.1531,2.1534,2.154,2.1544,2.156,2.1559,2.1562,2.1563,2.1579,2.1579,2.1579,2.1574,2.1574,2.1573,0,0,0,0,0,0,2.1476,2.1489,2.1492,2.1505,2.1512,2.1523,2.1528,2.1531,2.1538,2.1539,2.1546,2.1548,2.1554,2.1559,2.1559,2.1568,2.1569,2.157,2.1565,2.1564,2.1564,2.1562,2.1563,0,0,0,0,0,2.1476,2.1485,2.1496,2.1506,2.1509,2.1518,2.1523,2.1527,2.1535,2.1538,2.1545,2.1551,2.1557,2.1561,2.1567,2.1574,2.1575,2.1576,2.1576,2.1575,2.1575,2.1575,2.1575,2.1579,2.1579,2.1579,0,0,2.1478,2.1486,2.1492,2.1505,2.1512,2.1518,2.1521,2.1529,2.1533,2.1539,2.1546,2.1551,2.1558,2.1565,2.1568,2.1569,2.1574,2.1575,2.1575,2.1575,2.1575,2.1575,2.1574,2.1579,2.1579,2.1579,0,0,2.1484,2.1492,2.15,2.1505,2.1514,2.1519,2.1521,2.1531,2.1534,2.1541,2.1545,2.1549,2.156,2.1564,2.1568,2.157,2.1572,2.1571,2.1569,2.1569,2.1569,2.1569,2.1567,2.1566,2.1572,2.1572,2.1572,0,2.1485,2.1496,2.1503,2.151,2.1514,2.1519,2.1524,2.1529,2.154,2.1542,2.1543,2.1554,2.156,2.1565,2.1565,2.1569,2.1568,2.157,2.1569,2.1569,2.1568,2.1566,2.1566,2.1571,2.1571,2.1571,2.1571,0,2.1495,2.1502,2.1507,2.1516,2.152,2.1527,2.1532,2.1536,2.1538,2.1542,2.1547,2.1554,2.1559,2.1561,2.1565,2.1566,2.1566,2.1568,2.1569,2.1567,2.1566,2.1565,2.1571,2.1571,2.1571,2.1571,0,0,2.1501,2.1511,2.1513,2.1515,2.1523,2.1528,2.1533,2.1539,2.154,2.1546,2.1548,2.1555,2.1556,2.156,2.1563,2.1563,2.156,2.1564,2.1565,2.1561,2.1558,2.1556,2.1555,2.1561,2.1561,2.1561,2.1557,0,2.1507,2.1516,2.1521,2.1527,2.1532,2.1535,2.1538,2.1542,2.1545,2.1548,2.155,2.1554,2.1556,2.1558,2.1558,2.1561,2.1559,2.1561,2.1561,2.1561,2.1559,2.1555,2.1553,2.1549,2.1556,2.1556,2.1556,0,2.1515,2.152,2.1527,2.1531,2.1533,2.1536,2.1539,2.1543,2.1546,2.1547,2.155,2.1552,2.1554,2.1555,2.1556,2.1557,2.1557,2.1557,2.1557,2.1557,2.1558,2.1552,2.1548,2.1546,2.1556,2.1556,2.1556,0,2.1516,2.1524,2.1528,2.1531,2.1536,2.1538,2.154,2.1543,2.1544,2.1547,2.1547,2.1549,2.155,2.1551,2.1553,2.1554,2.1552,2.1554,2.1551,2.1551,2.1551,2.1551,2.1544,2.1553,2.1553,2.1553,2.1553,0,2.1521,2.1525,2.1528,2.1531,2.1534,2.1537,2.1539,2.1541,2.1543,2.1544,2.1546,2.1547,2.1549,2.1549,2.155,2.1549,2.155,2.155,2.155,2.1549,2.1548,2.1548,2.1548,2.1553,2.1553,2.1553,2.1553,0,2.1523,2.1526,2.153,2.1534,2.1535,2.1536,2.1538,2.1539,2.1541,2.1542,2.1542,2.1544,2.1544,2.1545,2.1546,2.1546,2.1543,2.1544,2.1542,2.1542,2.1538,2.1538,2.1531,2.1529,2.154,2.154,2.154,0,2.1526,2.1528,2.1531,2.1532,2.1533,2.1535,2.1536,2.1538,2.1539,2.154,2.154,2.154,2.154,2.1539,2.1539,2.1538,2.1538,2.1536,2.1538,2.1536,2.1535,2.1535,2.1534,2.1535,2.1535,2.1535,2.1535,0,2.1529,2.1529,2.1531,2.1532,2.1533,2.1534,2.1535,2.1535,2.1537,2.1537,2.1536,2.1536,2.1535,2.1534,2.1532,2.1532,2.1533,2.1534,2.1532,2.1531,2.1529,2.1528,2.1539,2.1534,2.1534,2.1534,2.1534,2.1534,2.153,2.1531,2.1532,2.1532,2.1533,2.1533,2.1533,2.1533,2.1533,2.1532,2.1533,2.1531,2.153,2.1528,2.1527,2.1525,2.1526,2.1525,2.1524,2.1524,2.1522,2.153,2.1525,2.1525,2.1525,2.1525,2.1525,0,2.1531,2.1531,2.1532,2.1532,2.1532,2.1532,2.1532,2.1531,2.153,2.1529,2.1528,2.1525,2.1523,2.1522,2.1519,2.1516,2.1516,2.1515,2.1515,2.1514,2.1523,2.1523,2.1515,2.1515,2.1515,2.1515,2.1515,2.1515,2.1532,2.1532,2.1532,2.1531,2.153,2.1529,2.1528,2.1527,2.1526,2.1523,2.1521,2.152,2.1518,2.1514,2.151,2.151,2.1508,2.1506,2.1506,2.1513,2.1514,2.1515,2.1515,2.1506,2.1506,2.1498,2.1498,2.1497]}]]